Weather History for Palm Springs, CA

Change the Weather History Date:

Thursday, February 14, 2013

  Actual Average Record
Temperature  
Mean Temperature 64 °F 60 °F  
Max Temperature 80 °F 72 °F 92 °F (1957)
Min Temperature 47 °F 48 °F 29 °F (1942)
Degree Days  
Heating Degree Days 1 6  
Month to date heating degree days 77 90  
Since 1 July heating degree days 653 717  
Cooling Degree Days 0 1  
Month to date cooling degree days 8 13  
Year to date cooling degree days 9 21  
Growing Degree Days 15 (Base 50)    
Moisture  
Dew Point 25 °F    
Average Humidity 30    
Maximum Humidity 48    
Minimum Humidity 11    
Precipitation  
Precipitation 0.00 in 0.04 in 1.14 in (1980)
Month to date precipitation 0.03 0.41  
Year to date precipitation 0.64 1.41  
Since 1 July precipitation 1.86 4.21  
Snow  
Snow 0.00 in - - ()
Month to date snowfall 0.0  
Year to date snowfall 0.0  
Since 1 July snowfall 0.0  
Snow Depth 0.00 in    
Sea Level Pressure  
Sea Level Pressure 30.13 in    
Wind  
Wind Speed 6 mph (NNW)    
Max Wind Speed 16 mph    
Max Gust Speed 21 mph    
Visibility 10 miles    
Events      
T = Trace of Precipitation, MM = Missing Value Source: NWS Daily Summary

Daily Weather History Graph

Daily Weather History Graph

Search for Another Location

Airport:

Trip Planner

Search our weather history database for the weather conditions in past years. The results will help you decide how hot, cold, wet, or windy it might be!

Date:

Astronomy

Feb. 14, 2013 Rise Set
Actual Time 6:31 AM PST 5:29 PM PST
Civil Twilight 6:05 AM PST 5:55 PM PST
Nautical Twilight 5:36 AM PST 6:24 PM PST
Astronomical Twilight 5:07 AM PST 6:53 PM PST
Moon 8:51 AM PST (2/14) 10:19 PM PST (2/14)
Length of Visible Light 11h 49m
Length of Day
10h 58m
Waxing Crescent, 22% of the Moon is Illuminated
Feb 14
Waxing Crescent
Feb 17
First Quarter
Feb 25
Full
Mar 4
Last Quarter
Mar 11
New

Hourly Weather History & Observations

Time (PST) Temp. Dew Point Humidity Pressure Visibility Wind Dir Wind Speed Gust Speed Precip Events Conditions
12:53 AM 54.0 °F 30.9 °F 41% 30.14 in 10.0 mi NNW 8.1 mph - N/A   Clear
1:53 AM 54.0 °F 30.9 °F 41% 30.13 in 10.0 mi WNW 5.8 mph - N/A   Clear
2:53 AM 51.1 °F 32.0 °F 48% 30.12 in 10.0 mi NNW 8.1 mph - N/A   Clear
3:53 AM 53.1 °F 30.9 °F 43% 30.11 in 10.0 mi WNW 6.9 mph - N/A   Clear
4:53 AM 51.1 °F 30.9 °F 46% 30.11 in 10.0 mi NW 10.4 mph - N/A   Clear
5:53 AM 51.1 °F 30.9 °F 46% 30.12 in 10.0 mi NW 8.1 mph - N/A   Clear
6:53 AM 51.1 °F 30.0 °F 44% 30.14 in 10.0 mi NW 5.8 mph - N/A   Clear
7:53 AM 55.9 °F 33.1 °F 42% 30.15 in 10.0 mi Variable 4.6 mph - N/A   Clear
8:53 AM 64.0 °F 30.0 °F 28% 30.16 in 10.0 mi Calm Calm - N/A   Clear
9:53 AM 73.0 °F 23.0 °F 15% 30.18 in 10.0 mi Calm Calm - N/A   Clear
10:53 AM 75.0 °F 23.0 °F 14% 30.18 in 10.0 mi Variable 5.8 mph - N/A   Clear
11:53 AM 77.0 °F 21.9 °F 13% 30.14 in 10.0 mi Variable 6.9 mph - N/A   Clear
12:53 PM 78.1 °F 21.9 °F 12% 30.10 in 10.0 mi Calm Calm - N/A   Clear
1:53 PM 79.0 °F 19.9 °F 11% 30.08 in 10.0 mi NE 5.8 mph - N/A   Clear
2:53 PM 79.0 °F 19.9 °F 11% 30.07 in 10.0 mi NNE 8.1 mph - N/A   Clear
3:53 PM 78.1 °F 18.0 °F 10% 30.07 in 10.0 mi North 11.5 mph - N/A   Clear
4:53 PM 75.0 °F 19.0 °F 12% 30.08 in 10.0 mi North 6.9 mph - N/A   Clear
5:53 PM 72.0 °F 21.0 °F 15% 30.09 in 10.0 mi North 9.2 mph - N/A   Clear
6:53 PM 70.0 °F 21.9 °F 16% 30.12 in 10.0 mi NNW 8.1 mph - N/A   Clear
7:53 PM 64.9 °F 26.1 °F 23% 30.15 in 10.0 mi Calm Calm - N/A   Clear
8:53 PM 69.1 °F 21.0 °F 16% 30.16 in 10.0 mi WNW 5.8 mph - N/A   Clear
9:53 PM 63.0 °F 25.0 °F 24% 30.17 in 10.0 mi Calm Calm - N/A   Clear
10:53 PM 62.1 °F 25.0 °F 24% 30.19 in 10.0 mi West 5.8 mph - N/A   Clear
11:53 PM 61.0 °F 25.0 °F 25% 30.18 in 10.0 mi West 3.5 mph - N/A   Clear